WXM80 ListenWXM80 Stop

You find our weather info also at:

UK Metoffice

WeatherCloud

Weather Underground

Northeastern Weather Network

AWEKAS

Citizen Weather Observer Program (CWOP)

HAMweather, WeatherForYou, PWS Weather


Weather Underground History page Text

Daily Summary for January 7, 2016 Units:  English    Metric   Both
« Previous Day
Next Day »
Daily Weekly Monthly Yearly Custom
  High: Low: Average:
Temperature: 42.5 °F 25.6 °F 33.8 °F
Dew Point: 27.9 °F 13.7 °F 21.9 °F
Humidity: 86 % 51 % 62 %
Wind Speed: 4.3 mph 0.0 mph 0.8 mph
Wind Gust: 5.8 mph - -
Wind:- - WSW
Pressure: 30.38 in 30.17 in -
Precipitation: 0.00 in    
Historical Graphs
 
 
Tabular Data for January 7, 2016
Time Temperature Dew Point Pressure Wind Wind Speed Wind Gust Humidity Rainfall Rate (Hourly)
00:02 29.9 °F 15.3 °F 30.38 in SW 0.6 mph 2.3 mph 54 % 0.00 in
00:07 29.9 °F 15.3 °F 30.38 in Calm   1.2 mph 54 % 0.00 in
00:12 29.9 °F 15.3 °F 30.38 in West 0.2 mph 2.3 mph 54 % 0.00 in
00:17 29.8 °F 15.2 °F 30.38 in WSW 0.7 mph 2.3 mph 54 % 0.00 in
00:22 29.8 °F 15.6 °F 30.38 in SSE 0.1 mph 2.3 mph 55 % 0.00 in
00:33 29.6 °F 15.4 °F 30.37 in SSW 0.5 mph 2.3 mph 55 % 0.00 in
00:38 29.6 °F 15.4 °F 30.37 in West 0.9 mph 3.5 mph 55 % 0.00 in
00:43 29.5 °F 15.3 °F 30.37 in West 0.1 mph 1.2 mph 55 % 0.00 in
00:48 29.4 °F 15.2 °F 30.37 in SW 1.1 mph 3.5 mph 55 % 0.00 in
00:53 29.4 °F 15.2 °F 30.37 in SW 2.0 mph 5.0 mph 55 % 0.00 in
00:58 29.4 °F 15.2 °F 30.37 in SW 1.1 mph 2.0 mph 55 % 0.00 in
01:03 29.4 °F 15.2 °F 30.37 in SW 1.4 mph 3.5 mph 55 % 0.00 in
01:08 29.6 °F 15.4 °F 30.36 in WSW 1.6 mph 3.5 mph 55 % 0.00 in
01:14 29.6 °F 15.4 °F 30.36 in WSW 0.7 mph 3.5 mph 55 % 0.00 in
01:19 29.6 °F 15.4 °F 30.35 in WSW 1.2 mph 2.3 mph 55 % 0.00 in
01:24 29.7 °F 15.1 °F 30.35 in WSW 0.3 mph 1.2 mph 54 % 0.00 in
01:29 29.7 °F 15.1 °F 30.35 in Calm     54 % 0.00 in
01:34 29.6 °F 15.4 °F 30.35 in Calm   1.2 mph 55 % 0.00 in
01:39 29.6 °F 15.0 °F 30.35 in WSW 0.6 mph 4.6 mph 54 % 0.00 in
01:44 29.6 °F 15.0 °F 30.35 in WSW 1.2 mph 2.0 mph 54 % 0.00 in
01:49 29.6 °F 15.0 °F 30.34 in SW 0.5 mph 2.3 mph 54 % 0.00 in
01:54 29.6 °F 15.0 °F 30.34 in SW 1.3 mph 3.5 mph 54 % 0.00 in
01:59 29.5 °F 15.3 °F 30.34 in SW 1.0 mph 3.0 mph 55 % 0.00 in
02:05 29.4 °F 15.2 °F 30.34 in SW 1.2 mph 2.0 mph 55 % 0.00 in
02:10 29.4 °F 15.2 °F 30.34 in SW 2.3 mph 4.6 mph 55 % 0.00 in
02:15 29.3 °F 15.5 °F 30.34 in SW 2.6 mph 3.5 mph 56 % 0.00 in
02:20 29.2 °F 15.0 °F 30.34 in WSW 1.3 mph 3.5 mph 55 % 0.00 in
02:25 29.2 °F 15.4 °F 30.35 in SW 2.6 mph 3.5 mph 56 % 0.00 in
02:30 29.1 °F 15.3 °F 30.35 in SSW 2.2 mph 4.0 mph 56 % 0.00 in
02:35 29.1 °F 15.3 °F 30.34 in SSW 2.2 mph 4.0 mph 56 % 0.00 in
02:40 29.1 °F 15.3 °F 30.34 in SSW 1.0 mph 3.5 mph 56 % 0.00 in
02:45 29.0 °F 15.7 °F 30.34 in SSW 1.0 mph 2.3 mph 57 % 0.00 in
02:50 28.9 °F 15.6 °F 30.34 in SW 1.8 mph 3.5 mph 57 % 0.00 in
02:56 28.8 °F 15.5 °F 30.34 in SW 1.7 mph 2.3 mph 57 % 0.00 in
03:01 28.7 °F 15.8 °F 30.34 in SW 1.3 mph 3.0 mph 58 % 0.00 in
03:06 28.4 °F 15.5 °F 30.35 in SW 1.4 mph 2.3 mph 58 % 0.00 in
03:11 28.3 °F 14.6 °F 30.34 in WSW 2.9 mph 4.6 mph 56 % 0.00 in
03:16 28.3 °F 14.2 °F 30.34 in WSW 2.7 mph 4.6 mph 55 % 0.00 in
03:21 28.4 °F 14.3 °F 30.34 in WSW 2.4 mph 3.5 mph 55 % 0.00 in
03:26 28.5 °F 14.4 °F 30.34 in SW 2.4 mph 4.0 mph 55 % 0.00 in
03:31 28.6 °F 14.5 °F 30.33 in WSW 2.1 mph 3.5 mph 55 % 0.00 in
03:36 28.7 °F 14.6 °F 30.33 in SW 1.6 mph 3.5 mph 55 % 0.00 in
03:41 28.8 °F 14.6 °F 30.33 in SW 2.2 mph 3.5 mph 55 % 0.00 in
03:47 28.8 °F 14.6 °F 30.33 in SSW 2.2 mph 3.5 mph 55 % 0.00 in
03:52 28.7 °F 14.6 °F 30.33 in SSW 2.5 mph 3.5 mph 55 % 0.00 in
03:57 28.7 °F 14.6 °F 30.33 in SW 2.0 mph 5.0 mph 55 % 0.00 in
04:02 28.7 °F 14.6 °F 30.33 in WSW 2.3 mph 4.0 mph 55 % 0.00 in
04:07 28.7 °F 14.1 °F 30.33 in SSW 2.1 mph 3.5 mph 54 % 0.00 in
04:12 28.7 °F 14.1 °F 30.33 in SW 0.8 mph 2.3 mph 54 % 0.00 in
04:17 28.7 °F 13.7 °F 30.33 in SW 2.6 mph 3.5 mph 53 % 0.00 in
04:22 28.7 °F 14.1 °F 30.33 in SW 2.1 mph 4.6 mph 54 % 0.00 in
04:27 28.7 °F 14.1 °F 30.33 in WSW 3.6 mph 4.0 mph 54 % 0.00 in
04:32 28.7 °F 14.1 °F 30.33 in SSW 2.9 mph 4.6 mph 54 % 0.00 in
04:38 28.7 °F 14.6 °F 30.33 in SW 2.3 mph 4.6 mph 55 % 0.00 in
04:43 28.6 °F 14.5 °F 30.33 in SW 2.7 mph 3.5 mph 55 % 0.00 in
04:48 28.6 °F 14.5 °F 30.33 in SW 1.2 mph 3.5 mph 55 % 0.00 in
04:53 28.6 °F 14.5 °F 30.33 in SW 2.3 mph 3.5 mph 55 % 0.00 in
04:58 28.6 °F 14.5 °F 30.33 in SW 1.7 mph 2.3 mph 55 % 0.00 in
05:03 28.5 °F 14.8 °F 30.33 in SW 1.3 mph 2.3 mph 56 % 0.00 in
05:08 28.4 °F 15.1 °F 30.33 in SW 1.2 mph 3.5 mph 57 % 0.00 in
05:13 28.3 °F 14.6 °F 30.33 in SW 1.2 mph 2.3 mph 56 % 0.00 in
05:18 28.2 °F 14.5 °F 30.33 in SW 1.7 mph 3.5 mph 56 % 0.00 in
05:23 28.2 °F 14.5 °F 30.33 in SW 2.3 mph 3.0 mph 56 % 0.00 in
05:29 28.2 °F 14.5 °F 30.34 in WSW 1.6 mph 3.5 mph 56 % 0.00 in
05:34 28.2 °F 14.9 °F 30.34 in SW 1.5 mph 3.5 mph 57 % 0.00 in
05:39 28.1 °F 14.8 °F 30.34 in SSW 2.3 mph 4.0 mph 57 % 0.00 in
05:44 28.1 °F 15.2 °F 30.34 in SW 1.4 mph 3.5 mph 58 % 0.00 in
05:49 28.1 °F 15.2 °F 30.34 in WSW 2.5 mph 3.5 mph 58 % 0.00 in
05:54 28.1 °F 14.8 °F 30.34 in WSW 3.5 mph 5.8 mph 57 % 0.00 in
05:59 28.2 °F 14.9 °F 30.34 in SW 2.2 mph 3.5 mph 57 % 0.00 in
06:04 28.2 °F 14.9 °F 30.33 in West 0.6 mph 1.2 mph 57 % 0.00 in
06:09 28.3 °F 15.4 °F 30.33 in WSW 1.4 mph 2.0 mph 58 % 0.00 in
06:14 28.3 °F 15.4 °F 30.33 in WSW 0.9 mph 2.3 mph 58 % 0.00 in
06:20 28.2 °F 15.3 °F 30.33 in WSW 0.4 mph 2.0 mph 58 % 0.00 in
06:25 28.1 °F 15.6 °F 30.33 in WSW 1.3 mph 3.5 mph 59 % 0.00 in
06:30 28.0 °F 15.5 °F 30.34 in WSW 1.0 mph 3.5 mph 59 % 0.00 in
06:35 27.9 °F 15.8 °F 30.33 in Calm     60 % 0.00 in
06:40 27.7 °F 16.0 °F 30.33 in Calm     61 % 0.00 in
06:45 27.3 °F 16.4 °F 30.33 in WSW 0.8 mph 2.3 mph 63 % 0.00 in
06:50 27.0 °F 16.4 °F 30.33 in WSW 0.6 mph 1.2 mph 64 % 0.00 in
06:55 26.8 °F 16.2 °F 30.34 in WSW 0.1 mph 1.2 mph 64 % 0.00 in
07:01 26.6 °F 16.4 °F 30.33 in Calm     65 % 0.00 in
07:06 26.5 °F 16.3 °F 30.33 in Calm     65 % 0.00 in
07:11 26.2 °F 16.4 °F 30.33 in Calm     66 % 0.00 in
07:16 26.1 °F 16.3 °F 30.33 in Calm     66 % 0.00 in
07:21 26.0 °F 16.5 °F 30.33 in WSW 0.6 mph 1.2 mph 67 % 0.00 in
07:26 25.8 °F 16.3 °F 30.33 in WSW 0.3 mph 1.2 mph 67 % 0.00 in
07:31 25.7 °F 16.9 °F 30.33 in Calm     69 % 0.00 in
07:36 25.7 °F 16.9 °F 30.33 in Calm     69 % 0.00 in
07:41 25.6 °F 16.8 °F 30.33 in Calm     69 % 0.00 in
07:46 25.6 °F 17.2 °F 30.32 in WSW 1.7 mph 2.3 mph 70 % 0.00 in
07:52 25.6 °F 17.2 °F 30.32 in WSW 0.7 mph 2.3 mph 70 % 0.00 in
07:57 25.6 °F 17.5 °F 30.32 in WSW 1.6 mph 2.3 mph 71 % 0.00 in
08:02 25.7 °F 17.6 °F 30.32 in WSW 1.3 mph 2.3 mph 71 % 0.00 in
08:07 25.8 °F 18.0 °F 30.32 in WSW 0.5 mph 1.2 mph 72 % 0.00 in
08:12 26.0 °F 18.2 °F 30.32 in WSW 0.9 mph 2.3 mph 72 % 0.00 in
08:17 26.2 °F 18.7 °F 30.32 in Calm   1.2 mph 73 % 0.00 in
08:22 26.6 °F 19.4 °F 30.33 in WSW 0.1 mph 1.0 mph 74 % 0.00 in
08:27 26.9 °F 19.7 °F 30.33 in WSW 0.7 mph 2.3 mph 74 % 0.00 in
08:32 27.2 °F 20.3 °F 30.33 in Calm     75 % 0.00 in
08:37 27.7 °F 20.8 °F 30.33 in Calm     75 % 0.00 in
08:43 28.1 °F 21.2 °F 30.32 in Calm     75 % 0.00 in
08:48 28.8 °F 22.2 °F 30.32 in Calm     76 % 0.00 in
08:53 29.4 °F 22.8 °F 30.32 in Calm     76 % 0.00 in
08:58 30.1 °F 23.4 °F 30.32 in WSW 0.6 mph 2.3 mph 76 % 0.00 in
09:03 30.6 °F 23.6 °F 30.32 in WSW 0.2 mph 1.2 mph 75 % 0.00 in
09:08 31.2 °F 23.5 °F 30.32 in WSW 0.2 mph 1.2 mph 73 % 0.00 in
09:13 31.9 °F 24.2 °F 30.32 in North 1.6 mph 3.5 mph 73 % 0.00 in
09:18 32.6 °F 24.2 °F 30.33 in North 0.7 mph 2.3 mph 71 % 0.00 in
09:23 33.1 °F 24.7 °F 30.32 in NW 0.9 mph 2.3 mph 71 % 0.00 in
09:28 33.8 °F 24.7 °F 30.32 in NNW 0.2 mph 2.3 mph 69 % 0.00 in
09:34 34.2 °F 24.4 °F 30.33 in NNW 0.8 mph 3.5 mph 67 % 0.00 in
09:39 34.6 °F 25.1 °F 30.32 in NNW 0.2 mph 3.5 mph 68 % 0.00 in
09:44 35.1 °F 25.2 °F 30.32 in NNW 2.0 mph 3.5 mph 67 % 0.00 in
09:49 35.6 °F 25.7 °F 30.32 in NNW 0.1 mph 1.2 mph 67 % 0.00 in
09:54 36.0 °F 25.4 °F 30.33 in NNW 1.3 mph 3.5 mph 65 % 0.00 in
09:59 36.4 °F 24.2 °F 30.33 in NNW 1.2 mph 2.3 mph 61 % 0.00 in
10:04 36.6 °F 24.0 °F 30.33 in NNW 0.4 mph 1.2 mph 60 % 0.00 in
10:09 37.0 °F 23.6 °F 30.33 in NNW 0.1 mph 1.2 mph 58 % 0.00 in
10:14 37.6 °F 23.7 °F 30.33 in Calm   2.3 mph 57 % 0.00 in
10:19 38.0 °F 23.3 °F 30.32 in NNW 1.1 mph 2.3 mph 55 % 0.00 in
10:25 38.4 °F 22.7 °F 30.32 in NNW 0.1 mph 3.5 mph 53 % 0.00 in
10:30 38.8 °F 23.1 °F 30.32 in NNW 0.1 mph 3.5 mph 53 % 0.00 in
10:35 38.9 °F 22.8 °F 30.31 in NNW 0.5 mph 2.3 mph 52 % 0.00 in
10:40 39.1 °F 22.9 °F 30.31 in NNW 1.4 mph 3.5 mph 52 % 0.00 in
10:45 39.2 °F 23.0 °F 30.31 in NNW 1.7 mph 4.0 mph 52 % 0.00 in
10:50 39.3 °F 23.6 °F 30.31 in NNW 1.3 mph 3.0 mph 53 % 0.00 in
10:55 39.3 °F 23.6 °F 30.31 in NNW 0.6 mph 2.3 mph 53 % 0.00 in
11:00 39.4 °F 23.2 °F 30.31 in NNW 0.3 mph 2.0 mph 52 % 0.00 in
11:05 39.6 °F 23.9 °F 30.30 in NNW 1.6 mph 3.5 mph 53 % 0.00 in
11:10 39.7 °F 24.0 °F 30.30 in Calm     53 % 0.00 in
11:16 39.9 °F 24.1 °F 30.29 in SSW 1.7 mph 3.5 mph 53 % 0.00 in
11:21 40.0 °F 23.3 °F 30.29 in SW 0.5 mph 3.5 mph 51 % 0.00 in
11:26 40.1 °F 23.4 °F 30.28 in Calm     51 % 0.00 in
11:31 40.4 °F 24.6 °F 30.28 in ENE 2.5 mph 3.5 mph 53 % 0.00 in
11:36 40.5 °F 24.7 °F 30.27 in NE 1.4 mph 3.0 mph 53 % 0.00 in
11:41 40.5 °F 24.2 °F 30.27 in North 2.7 mph 3.5 mph 52 % 0.00 in
11:46 40.5 °F 24.7 °F 30.27 in NNE 2.5 mph 4.6 mph 53 % 0.00 in
11:51 40.5 °F 25.1 °F 30.27 in NE 2.9 mph 3.5 mph 54 % 0.00 in
11:56 40.2 °F 24.9 °F 30.27 in NNE 2.2 mph 4.6 mph 54 % 0.00 in
12:01 40.1 °F 24.8 °F 30.26 in NNE 4.3 mph 5.8 mph 54 % 0.00 in
12:07 40.2 °F 24.9 °F 30.26 in NNE 1.9 mph 3.5 mph 54 % 0.00 in
12:12 40.3 °F 25.0 °F 30.26 in North 3.2 mph 5.0 mph 54 % 0.00 in
12:17 40.4 °F 24.1 °F 30.25 in North 1.0 mph 3.5 mph 52 % 0.00 in
12:22 40.6 °F 23.9 °F 30.25 in NNW 1.8 mph 3.5 mph 51 % 0.00 in
12:27 40.9 °F 24.1 °F 30.25 in NE 1.9 mph 5.0 mph 51 % 0.00 in
12:32 41.2 °F 24.9 °F 30.25 in North 2.8 mph 3.5 mph 52 % 0.00 in
12:37 41.4 °F 25.1 °F 30.25 in NNW 2.3 mph 4.0 mph 52 % 0.00 in
12:42 41.5 °F 25.2 °F 30.25 in North 0.5 mph 3.5 mph 52 % 0.00 in
12:47 41.5 °F 24.7 °F 30.25 in NNW 1.2 mph 2.3 mph 51 % 0.00 in
12:52 41.5 °F 25.2 °F 30.24 in North 0.8 mph 3.5 mph 52 % 0.00 in
12:58 41.6 °F 25.3 °F 30.24 in North 1.9 mph 3.5 mph 52 % 0.00 in
13:03 41.8 °F 25.0 °F 30.23 in North 1.4 mph 3.5 mph 51 % 0.00 in
13:08 41.8 °F 25.4 °F 30.23 in NNE 1.0 mph 3.5 mph 52 % 0.00 in
13:13 41.9 °F 25.1 °F 30.23 in NNE 1.2 mph 3.5 mph 51 % 0.00 in
13:23 42.2 °F 25.8 °F 30.23 in NE 3.1 mph 4.0 mph 52 % 0.00 in
13:28 42.4 °F 25.5 °F 30.22 in NW 1.0 mph 2.3 mph 51 % 0.00 in
13:33 42.5 °F 25.6 °F 30.22 in NNE 1.7 mph 3.5 mph 51 % 0.00 in
13:38 42.4 °F 25.5 °F 30.22 in NW 2.6 mph 3.5 mph 51 % 0.00 in
13:43 42.3 °F 25.9 °F 30.22 in NNW 1.4 mph 3.5 mph 52 % 0.00 in
13:49 42.3 °F 26.4 °F 30.22 in North 2.1 mph 3.5 mph 53 % 0.00 in
13:54 42.3 °F 26.4 °F 30.22 in Calm   1.2 mph 53 % 0.00 in
13:59 42.3 °F 25.9 °F 30.22 in North 0.7 mph 2.3 mph 52 % 0.00 in
14:04 42.3 °F 26.4 °F 30.22 in Calm   1.2 mph 53 % 0.00 in
14:09 42.3 °F 26.8 °F 30.22 in North 0.2 mph 2.0 mph 54 % 0.00 in
14:14 42.3 °F 26.4 °F 30.22 in Calm     53 % 0.00 in
14:19 42.2 °F 26.3 °F 30.22 in North 0.2 mph 1.2 mph 53 % 0.00 in
14:24 42.1 °F 26.6 °F 30.21 in North 0.2 mph 1.2 mph 54 % 0.00 in
14:29 42.0 °F 26.1 °F 30.22 in North 0.4 mph 2.3 mph 53 % 0.00 in
14:34 42.0 °F 26.1 °F 30.21 in North 0.3 mph 1.2 mph 53 % 0.00 in
14:40 41.9 °F 26.4 °F 30.21 in North 0.4 mph 1.2 mph 54 % 0.00 in
14:45 41.8 °F 26.4 °F 30.21 in Calm     54 % 0.00 in
14:50 41.6 °F 26.6 °F 30.21 in North 0.2 mph 1.2 mph 55 % 0.00 in
14:55 41.6 °F 26.6 °F 30.21 in Calm   1.2 mph 55 % 0.00 in
15:00 41.5 °F 26.5 °F 30.21 in North 0.4 mph 1.2 mph 55 % 0.00 in
15:05 41.5 °F 26.5 °F 30.21 in North 1.2 mph 2.3 mph 55 % 0.00 in
15:10 41.5 °F 26.5 °F 30.22 in North 1.6 mph 3.5 mph 55 % 0.00 in
15:15 41.5 °F 27.0 °F 30.22 in North 0.8 mph 1.2 mph 56 % 0.00 in
15:20 41.4 °F 26.4 °F 30.21 in North 1.1 mph 2.3 mph 55 % 0.00 in
15:25 41.4 °F 26.4 °F 30.22 in North 0.3 mph 1.2 mph 55 % 0.00 in
15:31 41.4 °F 26.4 °F 30.22 in Calm   1.2 mph 55 % 0.00 in
15:36 41.4 °F 26.4 °F 30.22 in Calm     55 % 0.00 in
15:41 41.3 °F 26.8 °F 30.21 in Calm     56 % 0.00 in
15:46 41.3 °F 26.8 °F 30.22 in Calm     56 % 0.00 in
15:51 41.4 °F 26.9 °F 30.21 in Calm     56 % 0.00 in
15:56 41.4 °F 27.7 °F 30.21 in Calm   1.2 mph 58 % 0.00 in
16:01 41.5 °F 27.8 °F 30.21 in Calm   1.2 mph 58 % 0.00 in
16:06 41.5 °F 27.4 °F 30.21 in Calm     57 % 0.00 in
16:11 41.4 °F 26.9 °F 30.21 in Calm     56 % 0.00 in
16:16 41.3 °F 26.8 °F 30.22 in Calm     56 % 0.00 in
16:22 41.3 °F 26.8 °F 30.22 in Calm     56 % 0.00 in
16:27 41.2 °F 26.7 °F 30.22 in Calm     56 % 0.00 in
16:32 41.1 °F 26.6 °F 30.22 in Calm   1.2 mph 56 % 0.00 in
16:37 41.1 °F 27.0 °F 30.22 in Calm     57 % 0.00 in
16:42 41.0 °F 27.3 °F 30.22 in Calm     58 % 0.00 in
16:52 40.7 °F 27.9 °F 30.22 in Calm     60 % 0.00 in
16:57 40.6 °F 27.8 °F 30.22 in Calm     60 % 0.00 in
17:02 40.5 °F 27.7 °F 30.21 in Calm     60 % 0.00 in
17:07 40.3 °F 27.9 °F 30.22 in Calm     61 % 0.00 in
17:13 40.1 °F 27.7 °F 30.22 in North 0.2 mph 1.2 mph 61 % 0.00 in
17:18 39.9 °F 27.5 °F 30.22 in Calm     61 % 0.00 in
17:23 39.8 °F 27.8 °F 30.22 in Calm     62 % 0.00 in
17:28 39.5 °F 27.5 °F 30.22 in North 0.4 mph 1.2 mph 62 % 0.00 in
17:33 39.2 °F 27.3 °F 30.22 in North 1.6 mph 2.3 mph 62 % 0.00 in
17:38 38.9 °F 27.0 °F 30.22 in North 1.0 mph 2.3 mph 62 % 0.00 in
17:43 38.7 °F 26.8 °F 30.22 in North 1.0 mph 2.3 mph 62 % 0.00 in
17:48 38.4 °F 26.5 °F 30.22 in Calm     62 % 0.00 in
17:53 38.3 °F 26.4 °F 30.22 in Calm     62 % 0.00 in
17:58 38.0 °F 26.5 °F 30.23 in Calm     63 % 0.00 in
18:04 37.7 °F 26.2 °F 30.23 in Calm   1.2 mph 63 % 0.00 in
18:09 37.5 °F 26.0 °F 30.23 in Calm     63 % 0.00 in
18:14 37.2 °F 25.8 °F 30.22 in Calm     63 % 0.00 in
18:19 37.0 °F 25.9 °F 30.22 in North 0.1 mph 1.2 mph 64 % 0.00 in
18:24 36.7 °F 26.0 °F 30.22 in Calm     65 % 0.00 in
18:29 36.5 °F 25.8 °F 30.23 in Calm     65 % 0.00 in
18:34 36.2 °F 25.9 °F 30.22 in Calm   1.2 mph 66 % 0.00 in
18:39 36.0 °F 25.7 °F 30.22 in Calm     66 % 0.00 in
18:44 35.7 °F 25.8 °F 30.22 in Calm     67 % 0.00 in
18:49 35.4 °F 25.9 °F 30.23 in Calm     68 % 0.00 in
18:55 35.2 °F 25.7 °F 30.23 in Calm     68 % 0.00 in
19:00 34.9 °F 25.8 °F 30.23 in North 0.2 mph 1.2 mph 69 % 0.00 in
19:05 34.6 °F 25.5 °F 30.23 in North 0.4 mph 1.2 mph 69 % 0.00 in
19:10 34.4 °F 25.6 °F 30.23 in Calm     70 % 0.00 in
19:15 34.3 °F 25.9 °F 30.23 in Calm     71 % 0.00 in
19:20 34.2 °F 25.8 °F 30.22 in North 0.1 mph 1.2 mph 71 % 0.00 in
19:25 34.3 °F 25.9 °F 30.22 in Calm     71 % 0.00 in
19:30 34.3 °F 25.9 °F 30.22 in Calm     71 % 0.00 in
19:35 34.3 °F 25.9 °F 30.22 in Calm   1.0 mph 71 % 0.00 in
19:40 34.2 °F 25.8 °F 30.22 in North 0.5 mph 1.2 mph 71 % 0.00 in
19:46 34.2 °F 25.8 °F 30.22 in North 0.2 mph 1.2 mph 71 % 0.00 in
19:51 34.2 °F 26.1 °F 30.22 in Calm   1.2 mph 72 % 0.00 in
19:56 34.2 °F 26.1 °F 30.22 in North 1.1 mph 2.3 mph 72 % 0.00 in
20:01 34.1 °F 26.0 °F 30.22 in Calm     72 % 0.00 in
20:06 34.1 °F 26.0 °F 30.22 in Calm     72 % 0.00 in
20:11 34.0 °F 25.6 °F 30.22 in Calm     71 % 0.00 in
20:16 33.9 °F 25.5 °F 30.22 in North 0.4 mph 1.2 mph 71 % 0.00 in
20:21 33.8 °F 25.7 °F 30.22 in North 0.5 mph 1.2 mph 72 % 0.00 in
20:26 33.6 °F 25.9 °F 30.22 in North 0.7 mph 1.2 mph 73 % 0.00 in
20:32 33.4 °F 26.0 °F 30.21 in North 0.7 mph 1.2 mph 74 % 0.00 in
20:37 33.2 °F 25.5 °F 30.21 in North 0.8 mph 2.3 mph 73 % 0.00 in
20:42 33.1 °F 25.4 °F 30.20 in Calm     73 % 0.00 in
20:47 33.0 °F 25.3 °F 30.20 in Calm     73 % 0.00 in
20:52 32.8 °F 25.1 °F 30.21 in Calm     73 % 0.00 in
20:57 32.6 °F 25.2 °F 30.20 in North 1.1 mph 2.3 mph 74 % 0.00 in
21:02 32.4 °F 25.4 °F 30.20 in North 0.8 mph 2.3 mph 75 % 0.00 in
21:07 32.3 °F 25.3 °F 30.20 in Calm     75 % 0.00 in
21:12 32.3 °F 25.3 °F 30.20 in Calm     75 % 0.00 in
21:23 32.0 °F 25.0 °F 30.20 in Calm     75 % 0.00 in
21:28 31.9 °F 25.2 °F 30.20 in Calm   1.2 mph 76 % 0.00 in
21:33 31.8 °F 25.1 °F 30.20 in Calm     76 % 0.00 in
21:38 31.7 °F 25.0 °F 30.20 in Calm     76 % 0.00 in
21:43 31.6 °F 24.9 °F 30.20 in Calm     76 % 0.00 in
21:48 31.5 °F 25.1 °F 30.20 in Calm     77 % 0.00 in
21:58 31.2 °F 24.8 °F 30.20 in Calm     77 % 0.00 in
22:03 31.1 °F 24.7 °F 30.19 in Calm     77 % 0.00 in
22:08 31.0 °F 24.9 °F 30.19 in Calm     78 % 0.00 in
22:14 30.8 °F 25.1 °F 30.19 in Calm     79 % 0.00 in
22:19 30.7 °F 25.3 °F 30.19 in North 0.4 mph 1.2 mph 80 % 0.00 in
22:24 30.6 °F 25.5 °F 30.20 in North 0.1 mph 1.2 mph 81 % 0.00 in
22:29 30.6 °F 25.5 °F 30.19 in North 0.6 mph 1.2 mph 81 % 0.00 in
22:34 30.5 °F 25.7 °F 30.19 in North 0.4 mph 1.2 mph 82 % 0.00 in
22:39 30.6 °F 25.8 °F 30.19 in Calm   1.2 mph 82 % 0.00 in
22:44 30.6 °F 25.8 °F 30.19 in North 0.5 mph 1.2 mph 82 % 0.00 in
22:49 30.7 °F 25.9 °F 30.19 in North 0.8 mph 1.2 mph 82 % 0.00 in
22:54 30.7 °F 25.9 °F 30.19 in Calm   1.2 mph 82 % 0.00 in
22:59 30.8 °F 26.0 °F 30.19 in Calm     82 % 0.00 in
23:05 30.7 °F 25.9 °F 30.18 in Calm     82 % 0.00 in
23:10 30.7 °F 25.9 °F 30.18 in Calm     82 % 0.00 in
23:15 30.6 °F 25.8 °F 30.18 in Calm     82 % 0.00 in
23:20 30.6 °F 26.1 °F 30.18 in ENE 2.5 mph 4.6 mph 83 % 0.00 in
23:25 30.6 °F 26.3 °F 30.18 in ENE 0.1 mph 1.2 mph 84 % 0.00 in
23:30 30.6 °F 26.6 °F 30.18 in ENE 0.4 mph 1.2 mph 85 % 0.00 in
23:35 30.6 °F 26.6 °F 30.18 in East 0.3 mph 1.2 mph 85 % 0.00 in
23:40 30.7 °F 27.0 °F 30.17 in East 0.6 mph 1.2 mph 86 % 0.00 in
23:50 31.0 °F 27.3 °F 30.17 in East 0.3 mph 2.3 mph 86 % 0.00 in
23:55 31.2 °F 27.2 °F 30.17 in ENE 3.8 mph 5.8 mph 85 % 0.00 in
Crab Meadow Weather
Compliments of Weather Underground - 3 mb

Script developed by  Jim McMurry - jmcmurry@mwt.net Adapted for the template by  Wim van der Kuil - Leuven-Template.eu

Weather Terms: High Wind Warning - Sustained winds of 40 mph or greater for a duration of one hour or longer or gusts to 58 mph or greater.